Home > Weather > Thun > Past weeks

Flag for Switzerland Weather for the Past 2 Weeks in Thun, Bern, Switzerland

Now
36 °F

Passing clouds.


Feels Like: 33 °F
Forecast: 26 / 43 °F
Wind: 3 mph from North

Location: Bern / Belp

Current Time: Feb 11, 2016 at 9:24:56 PM

Latest Report: Feb 11, 2016 at 8:50 PM


Visibility: N/A

Pressure: 29.74 "Hg (27.75 "Hg at 557m altitude)

Humidity: 87%

Dew point: 32 °F

Location of ThunLocation

Historic Weather in Thun — Graph

°F

Thun Temperature Yesterday

Maximum temperature yesterday: 39 °F (at 1:20 PM)
Minimum temperature yesterday: 28 °F (at 11:50 PM)
Average temperature yesterday: 36 °F

High & Low Weather Summary for the Past Weeks

 TemperatureHumidityPressure
High59 °F (Feb 1, 11:50 AM)100% (Jan 27, 8:20 PM)30.48 "Hg (Jan 27, 8:20 PM)
Low25 °F (Feb 11, 7:20 AM)50% (Feb 9, 3:50 AM)29.39 "Hg (Feb 9, 4:20 PM)
Average41 °F85%30.08 "Hg
* Reported Jan 27 8:20 PM — Feb 11 8:20 PM, Thun, Weather by CustomWeather, © 2016

Note: Actual official high and low records may vary slightly from our data, if they occured in-between our weather recording intervals... More about our weather records

Advertising

Thun Weather History for the Previous 24 Hours

 ConditionsComfort  
Time TempWeatherWind HumidityBarometerVisibility
8:20 PM
Thu, Feb 11
36 °FPassing clouds.2 mph81%29.74 "HgN/A
7:50 PM36 °FPassing clouds.5 mph81%29.74 "HgN/A
7:20 PM34 °FPassing clouds.No wind87%29.71 "HgN/A
6:50 PM36 °FPassing clouds.3 mph75%29.71 "HgN/A
6:20 PM37 °FPassing clouds.3 mph70%29.71 "HgN/A
5:50 PM37 °FPassing clouds.2 mph70%29.71 "HgN/A
5:20 PM37 °FOvercast.5 mph75%29.71 "HgN/A
4:50 PM39 °FPassing clouds.5 mph65%29.71 "HgN/A
4:20 PM41 °FOvercast.3 mph57%29.71 "HgN/A
3:50 PM41 °FOvercast.2 mph53%29.71 "HgN/A
3:20 PM41 °FOvercast.2 mph53%29.71 "HgN/A
2:50 PM41 °FPartly sunny.2 mph53%29.71 "HgN/A
2:20 PM41 °FScattered clouds.3 mph57%29.71 "HgN/A
1:50 PM41 °FPassing clouds.3 mph57%29.74 "HgN/A
1:20 PM39 °FPassing clouds.5 mph61%29.74 "HgN/A
12:50 PM39 °FPassing clouds.5 mph61%29.77 "HgN/A
12:20 PM39 °FPassing clouds.2 mph56%29.80 "HgN/A
11:50 AM37 °FScattered clouds.2 mph65%29.80 "HgN/A
11:20 AM37 °FScattered clouds.1 mph65%29.80 "HgN/A
10:50 AM37 °FPassing clouds.3 mph70%29.80 "HgN/A
10:20 AM34 °FPassing clouds.6 mph81%29.80 "HgN/A
9:50 AM32 °FSunny.3 mph93%29.80 "Hg10 mi
9:20 AM30 °FSunny.3 mph93%29.80 "Hg10 mi
8:50 AM27 °FPassing clouds.2 mph100%29.80 "HgN/A
8:20 AM27 °FPassing clouds.1 mph100%29.80 "HgN/A
7:50 AM25 °FPassing clouds.3 mph100%29.80 "HgN/A
7:20 AM25 °FPassing clouds.3 mph100%29.80 "HgN/A
6:50 AM27 °FPassing clouds.3 mph100%29.80 "HgN/A
6:20 AM27 °FPassing clouds.2 mph100%29.80 "HgN/A
5:50 AM27 °FPassing clouds.2 mph100%29.80 "HgN/A
5:20 AM28 °FPassing clouds.1 mph100%29.80 "HgN/A
4:50 AM28 °FOvercast.1 mph100%29.80 "HgN/A
4:20 AM28 °FPassing clouds.No wind100%29.80 "HgN/A
3:20 AM28 °FPassing clouds.1 mph100%29.80 "HgN/A
2:50 AM30 °FPassing clouds.1 mph93%29.80 "HgN/A
2:20 AM30 °FPassing clouds.2 mph100%29.77 "HgN/A
1:50 AM28 °FPassing clouds.2 mph100%29.77 "HgN/A
1:20 AM30 °FPassing clouds.1 mph93%29.77 "HgN/A
12:50 AM30 °FPassing clouds.2 mph93%29.77 "HgN/A
12:20 AM30 °FMostly cloudy.1 mph93%29.74 "HgN/A
11:50 PM
Wed, Feb 10
28 °FPassing clouds.7 mph100%29.74 "HgN/A
11:20 PM30 °FChilly.3 mph93%29.74 "HgN/A
10:50 PM32 °FPassing clouds.5 mph87%29.74 "HgN/A
10:20 PM32 °FPassing clouds.2 mph87%29.71 "HgN/A
9:50 PM36 °FPassing clouds.7 mph75%29.71 "HgN/A
9:20 PM34 °FPassing clouds.7 mph81%29.71 "HgN/A
Weather by CustomWeather, © 2016

See weather overviewHow to use our weather pages